This demonstration page uses our WeatherBlox Daily Observations layout. Learn more.

38.89511, -77.03637

Hourly Observations for September 27, 2015

Temp ( °F °C ) Dew Point ( °F °C ) Humidity (%) Winds ( mph kmh ) Pressure ( in mb ) Visibility ( mi km ) Precip ( " mm )
12:52 am 00:52 Partly Cloudy 64 17.8 54 12.2 70 70 NE 13 20 30.38 1029 10 16.0934 0 0
1:52 am 01:52 Mostly Cloudy 63 17.2 55 12.8 76 76 NNE 14 22 30.37 1028 10 16.0934 0 0
2:52 am 02:52 Mostly Cloudy 63 17.2 55 12.8 76 76 NE 10 17 30.36 1028 10 16.0934 0 0
3:52 am 03:52 Cloudy 63 17.2 55 12.8 76 76 NE 10 17 30.35 1028 10 16.0934 0 0
4:52 am 04:52 Cloudy 63 17.2 55 12.8 76 76 NE 14 22 30.35 1028 10 16.0934 0 0
5:52 am 05:52 Cloudy 63 17.2 56 13.3 78 78 NNE 9 15 30.35 1028 10 16.0934 0 0
6:52 am 06:52 Cloudy 62 16.7 55 12.8 78 78 NNE 10 17 30.35 1028 10 16.0934 0 0.0254
7:52 am 07:52 Cloudy with Light Rain 62 16.7 56 13.3 80 80 NNE 12 19 30.36 1028 10 16.0934 0 0.0254
8:52 am 08:52 Mostly Cloudy 63 17.2 56 13.3 78 78 NE 8 13 30.37 1028 10 16.0934 0 0.0254
9:52 am 09:52 Mostly Cloudy 66 18.9 58 14.4 75 75 NE 12 19 30.37 1029 10 16.0934 0 0
10:52 am 10:52 Mostly Cloudy 69 20.6 58 14.4 68 68 ENE 13 20 30.36 1028 10 16.0934 0 0
11:52 am 11:52 Mostly Cloudy 71 21.7 59 15 66 66 NE 10 17 30.35 1028 10 16.0934 0 0
12:52 pm 12:52 Cloudy 72 22.2 60 15.6 66 66 ENE 10 17 30.34 1028 10 16.0934 0 0
1:52 pm 13:52 Mostly Cloudy 72 22.2 60 15.6 66 66 NE 10 17 30.32 1027 10 16.0934 0 0
2:52 pm 14:52 Mostly Cloudy 74 23.3 61 16.1 64 64 ENE 10 17 30.29 1026 10 16.0934 0 0
3:52 pm 15:52 Cloudy 73 22.8 62 16.7 69 69 NE 14 22 30.27 1025 10 16.0934 0 0
4:27 pm 16:27 Cloudy 73 23 63 17 69 69 ENE 8 13 30.27 1025 10 16.0934 0 0
4:52 pm 16:52 Cloudy 74 23.3 62 16.7 67 67 ENE 12 19 30.26 1025 10 16.0934 0 0
5:52 pm 17:52 Cloudy 73 22.8 62 16.7 69 69 E 12 19 30.25 1025 10 16.0934 0 0
6:52 pm 18:52 Cloudy 72 22.2 62 16.7 71 71 ENE 10 17 30.26 1025 10 16.0934 0 0
7:52 pm 19:52 Cloudy 72 22.2 63 17.2 73 73 ENE 7 11 30.27 1025 10 16.0934 0 0
8:52 pm 20:52 Mostly Cloudy 71 21.7 63 17.2 76 76 ENE 8 13 30.27 1025 10 16.0934 0 0
9:03 pm 21:03 Mostly Cloudy 72 22 63 17 73 73 ENE 10 17 30.27 1025 10 16.0934 0 0
9:52 pm 21:52 Cloudy 70 21.1 63 17.2 79 79 E 12 19 30.27 1025 10 16.0934 0 0
10:52 pm 22:52 Mostly Cloudy 70 21.1 63 17.2 79 79 ENE 10 17 30.27 1025 10 16.0934 0 0
11:52 pm 23:52 Cloudy 69 20.6 63 17.2 81 81 NE 9 15 30.27 1025 10 16.0934 0 0

Powered by AerisWeather